Regional Weather Roundup
Issued by NWS State College, PA

Home | Current Version | Previous Version | Graphics & Text | Print | Product List | Glossary Off
Versions: 1 2 3 4 5 6 7 8 9 10 11 12 13 14 15 16 17 18 19 20 21 22 23 24 25 26 27 28 29 30 31 32 33 34 35 36 37 38 39 40 41 42 43 44 45 46 47 48 49 50

000
ASUS41 KCTP 060403
RWRCTP

REGIONAL WEATHER ROUNDUP
NATIONAL WEATHER SERVICE STATE COLLEGE PA
1200 AM EDT MON JUL 06 2015

Note: "fair" indicates few or no clouds below 12,000 feet with no
significant weather and/or obstructions to visibility.

* = STATION THAT DOES NOT REPORT PRECIPITATION /E.G. RAIN...SNOW...ETC/
    THUNDER OR FOG.

PAZ002>004-007>009-013>016-020>023-029>032-060500-
WESTERN PENNSYLVANIA

CITY           SKY/WX    TMP DP  RH WIND       PRES   REMARKS
ERIE           PTCLDY    66  58  75 CALM      30.10F
MEADVILLE      PTCLDY    66  58  75 CALM      30.13F
FRANKLIN*      PTCLDY    64  55  72 E5        30.15F
NEW CASTLE     FAIR      67  60  78 CALM      30.12S
BEAVER COUNTY  NOT AVBL
BUTLER*        CLOUDY    70  61  73 E7        30.13S
PITTSBURGH INT CLOUDY    73  61  65 E3        30.10S
PITTSBURGH     CLOUDY    73  61  65 SE5       30.10S
INDIANA*       PTCLDY    70  64  83 E5        30.16S
LATROBE        NOT AVBL
WASHINGTON CO* NOT AVBL
$$

PAZ004>006-010>012-017>019-024>028-033>037-041-042-045-046-049>053-060500-
CENTRAL PENNSYLVANIA

CITY           SKY/WX    TMP DP  RH WIND       PRES   REMARKS
BRADFORD       MOCLDY    59  57  93 CALM      30.20R
DUBOIS         MOCLDY    66  58  75 E6        30.16F
CLEARFIELD     MOCLDY    63  60  90 N6        30.17S
JOHNSTOWN      CLOUDY    68  62  81 SE7       30.18R
ALTOONA        CLOUDY    69  65  86 SE5       30.17S
STATE COLLEGE  MOCLDY    67  62  85 N3        30.16S
WILLIAMSPORT   CLOUDY    64  60  87 CALM      30.15R
SELINSGROVE    NOT AVBL
FT INDIANTOWN  CLOUDY    66  64  94 NE3       30.15S
CAPITAL CITY   CLOUDY    73  66  78 E5        30.13F
HARRISBURG     CLOUDY    71  67  87 CALM      30.13S
YORK           CLOUDY    73  66  78 S7        30.14S
$$

PAZ038>040-043-044-047-048-054-055-060>062-067>071-060500-
EASTERN PENNSYLVANIA

CITY           SKY/WX    TMP DP  RH WIND       PRES   REMARKS
SCRANTON       PTCLDY    66  58  75 E7        30.17R
MOUNT POCONO   PTCLDY    59  56  89 NE3       30.21S
ALLENTOWN      MOCLDY    68  64  87 CALM      30.15R
QUAKERTOWN*    MOCLDY    66  66 100 CALM      30.17R
READING        CLOUDY    70  66  87 CALM      30.14R
LANCASTER      CLOUDY    70  67  90 CALM      30.15R
COATESVILLE    CLOUDY    70  68  94 CALM      30.18R
POTTSTOWN      CLOUDY    69  67  93 CALM      30.17R
BLUE BELL      CLOUDY    73  68  83 SW6       30.15S
DOYLESTOWN     MOCLDY    67  65  93 CALM      30.15S
WILLOW GROVE   NOT AVBL
NORTH PHILA    CLOUDY    76  65  68 SW6       30.16S
PHILADELPHIA   CLOUDY    74  67  78 S3        30.16R
$$


USA.gov is the U.S. government's official web portal to all federal, state and local government web resources and services.